MACSAT 2 (M 2) 1 20608U 90043B 10252.04815941 .00000258 00000-0 35288-4 0 1126 2 20608 89.7278 67.3013 0096297 118.6166 242.4796 14.72080917 89382 TUBSAT A 1 21577U 91050D 10252.08380620 -.00000029 00000-0 48330-5 0 8628 2 21577 98.5184 199.3553 0006934 141.9078 218.2602 14.38574568 4743 S80/T 1 22078U 92052C 10252.29793918 -.00000037 00000-0 10000-3 0 9091 2 22078 66.0847 99.1160 0002239 44.4513 315.6694 12.86732359849523 HEALTHSAT 1 1 22827U 93061E 10251.98103293 -.00000050 00000-0 -26213-5 0 6346 2 22827 98.4827 199.8031 0008842 358.2164 1.8989 14.30217356884370 TUBSAT B 1 22970U 94003B 10252.29890343 .00000051 00000-0 10000-3 0 4214 2 22970 82.5621 192.6618 0015249 201.2661 158.7749 13.16918935799099 CERISE 1 23606U 95033B 10252.04614556 .00000763 00000-0 95978-4 0 1998 2 23606 98.2966 34.4404 0007714 93.7565 266.4496 14.85177461818482 UPM/LBSAT 1 23607U 95033C 10252.02366481 -.00000029 00000-0 34559-5 0 4749 2 23607 98.1771 347.4471 0005036 260.9728 99.0909 14.74864956815207 FAISAT 2V 1 24954U 97052B 10251.82744241 .00000036 00000-0 20482-4 0 9290 2 24954 82.9256 339.5059 0038674 311.7301 48.0550 13.79673062652533 MUBLCOM 1 25736U 99026B 10251.78347141 .00000224 00000-0 75444-4 0 1182 2 25736 97.7601 149.7918 0006544 110.4219 249.7675 14.44739706595566 RUBIN-3 & SL-8 R/B 1 27561U 02054C 10252.57069969 .00000057 00000-0 23772-4 0 788 2 27561 97.9411 69.8154 0046582 285.0746 74.5291 14.53832019412803 APRIZESAT 2 1 28366U 04025A 10251.92880284 .00000070 00000-0 36640-4 0 7141 2 28366 98.1269 227.0497 0108173 258.2627 100.6402 14.35622448324613 SAUDICOMSAT 1 1 28369U 04025D 10252.29553040 .00000079 00000-0 30639-4 0 7558 2 28369 97.9762 273.3212 0035330 104.7431 255.7679 14.50704758328065 SAUDICOMSAT 2 1 28370U 04025E 10251.56946011 .00000011 00000-0 14606-4 0 7623 2 28370 98.0108 255.6423 0059450 151.1747 209.2741 14.45800273326857 APRIZESAT 1 1 28372U 04025G 10252.54091757 .00000094 00000-0 35993-4 0 7423 2 28372 97.9891 264.3302 0047941 125.1338 235.4372 14.48221683327530 NANOSAT-1 1 28493U 04049B 10251.70789579 .00000165 00000-0 35864-4 0 7253 2 28493 98.3234 225.6659 0003749 279.2733 80.8080 14.70443592307078 SAUDICOMSAT 7 1 31119U 07012C 10251.67267896 .00000385 00000-0 88724-4 0 298 2 31119 97.9352 301.1627 0061329 292.3983 67.0701 14.59528791180910 SAUDICOMSAT 6 1 31121U 07012E 10252.06321358 .00000365 00000-0 89075-4 0 309 2 31121 97.9306 295.2932 0078638 309.5004 49.9251 14.56398251180596 SAUDICOMSAT 5 1 31124U 07012H 10252.18152420 .00000399 00000-0 89121-4 0 373 2 31124 97.9391 305.0756 0052608 281.7285 77.7976 14.61117865181183 SAUDICOMSAT 3 1 31125U 07012J 10252.71809518 .00000410 00000-0 88749-4 0 458 2 31125 97.9448 308.8057 0044019 270.7255 88.8879 14.62652387181453 SAUDICOMSAT 4 1 31127U 07012L 10252.17648517 .00000379 00000-0 89803-4 0 377 2 31127 97.9321 298.7199 0069570 299.5026 59.9239 14.58050619180805 APRIZESAT 4 1 35684U 09041D 10252.69806158 .00000102 00000-0 22259-4 0 3590 2 35684 98.0922 153.5974 0050979 132.1288 228.4305 14.76101501 60036 APRIZESAT 3 1 35686U 09041F 10252.20254204 .00000028 00000-0 10308-4 0 3519 2 35686 98.0945 157.3101 0080611 125.7845 235.0936 14.82602734 60226 AISSAT 1 1 36797U 10035C 10252.74340016 .00000187 00000-0 31579-4 0 1128 2 36797 98.1423 312.7851 0013728 105.6216 254.6514 14.80552150 8815